Regional Weather Roundup
Issued by NWS

Home | Current Version | Previous Version | Text Only | Print | Product List | Glossary On
Versions: 1 2 3 4 5 6 7 8 9 10 11 12 13 14 15 16 17 18 19 20 21 22 23 24 25 26 27 28 29 30 31 32 33 34 35 36 37 38 39 40 41 42 43 44 45 46 47 48 49 50
000
ASUS43 KMPX 272301
RWRMN
WEATHER ROUNDUP FOR MINNESOTA
NATIONAL WEATHER SERVICE TWIN CITIES/CHANHASSEN MN
500 PM CST MON FEB 27 2017


NOTE: "FAIR" INDICATES FEW OR NO CLOUDS BELOW 12,000 FEET WITH NO
SIGNIFICANT WEATHER AND/OR OBSTRUCTIONS TO VISIBILITY. N/A MEANS
CURRENT SKY AND/OR WEATHER CONDITIONS ARE NOT AVAILABLE.

MNZ060>063-068>070-280000-
   Twin Cities Metro

CITY           SKY/WX    TMP DP  RH WIND       PRES   REMARKS
TWIN CITIES    MOCLDY    42  23  46 SE13      29.89F
ST PAUL        CLEAR     41  21  44 S16       29.91S
CRYSTAL        MOCLDY    43  18  36 SE13      29.87S
BLAINE         MOCLDY    46  19  34 S14       29.88S
LAKEVILLE      CLOUDY    37  27  65 SE7       29.89S
EDEN PRAIRIE   CLOUDY    42  20  41 S12       29.87F
SOUTH ST PAUL  MOCLDY    42  21  44 S9        29.90S
LAKE ELMO      FAIR      41  21  45 S14       29.91S
$$
MNZ001>005-007-008-013>017-022>024-027-028-280000-
   Northwest Minnesota

CITY           SKY/WX    TMP DP  RH WIND       PRES   REMARKS
BEMIDJI        PTCLDY    30  19  61 E6        29.81F WCI  24
HALLOCK        MOCLDY    18  12  79 N8        29.91S WCI   7
ROSEAU         CLOUDY    23  18  80 NW6       29.88S WCI  16
WARROAD        CLEAR     25  18  74 W6        29.88S WCI  18
THIEF RVR FALL   N/A    N/A N/A N/A MISG        N/A
CROOKSTON      CLOUDY    27  19  74 NE12      29.87S WCI  16
FOSSTON        MOCLDY    27  18  69 N10       29.83S WCI  17
DETROIT LAKES  CLOUDY    32  27  80 SE8       29.80R WCI  25
MOORHEAD       CLOUDY    34  25  69 NE5       29.81S WCI  30
PARK RAPIDS    CLOUDY    35  21  56 E8        29.78F WCI  29
MAHNOMEN       FAIR      29  21  72 N12       29.80S WCI  19
$$
MNZ006-009>011-018-025>026-280000-
   North Central Minnesota

CITY           SKY/WX    TMP DP  RH WIND       PRES   REMARKS
BAUDETTE       PTCLDY    26  11  52 N9        29.86S WCI  17
FLAG ISLAND    LGT SNOW  21  19  93 SW7       29.87R WCI  13
INTL FALLS     MOCLDY    29   7  39 CALM      29.86F
WASKISH        CLOUDY    27  12  54 NW3       29.86S
BIG FORK       MOCLDY    32  18  55 CALM      29.85S
LONGVILLE      CLOUDY    34  23  64 CALM      29.82S
GRAND RAPIDS   CLOUDY    33  22  63 SE5       29.85F WCI  29
CRANE LAKE     CLEAR     28  12  50 CALM      29.89F
ORR            MOCLDY    30  14  51 CALM      29.84S
COOK           PTCLDY    30  18  59 CALM      29.87S
WALKER         CLOUDY    30  19  64 CALM      29.81F
$$
MNZ012-019>021-037-280000-
   Northeast Minnesota

CITY           SKY/WX    TMP DP  RH WIND       PRES   REMARKS
DULUTH         CLOUDY    29  23  78 E7        29.86F WCI  22
ELY            CLEAR     30  18  59 CALM      29.86F
HIBBING        MOCLDY    32  20  61 SE5       29.85S WCI  27
EVELETH        PTCLDY    32  17  53 S6        29.87S WCI  27
DULUTH HARBOR  MOCLDY    30  27  86 CALM      29.92F
TWO HARBORS    PTCLDY    30  25  80 E5        29.88F WCI  25
SILVER BAY     CLOUDY    28  21  74 NE3       29.89F
GRAND MARAIS     N/A     28  21  75 CALM      29.97S
G MARAIS ARPRT PTCLDY    21  16  79 SE3       29.90S
$$
MNZ029>031-032-039>041-046>048-054>057-064-280000-
   West Central Minnesota

CITY           SKY/WX    TMP DP  RH WIND       PRES   REMARKS
FERGUS FALLS   CLOUDY    36  27  69 E5        29.81S
WHEATON        SUNNY     37  30  75 E8        29.76F
MORRIS         CLOUDY    43  30  61 SE12      29.74F
ALEXANDRIA     CLOUDY    38  24  57 SE7       29.78S
ELBOW LAKE     FAIR      36  27  69 SE10      29.76F
WADENA         CLOUDY    34  25  69 E7        29.79S WCI  28
GLENWOOD       CLOUDY    43  27  52 SE10      29.78S
APPLETON       CLOUDY    46  23  39 S5        29.75S
BENSON         CLOUDY    46  19  34 S10       29.78S
ORTONVILLE     CLOUDY    45  25  45 S7        29.73S
MADISON        MOSUNNY   48  27  43 S14       29.74F
WILLMAR        FAIR      43  30  61 SE9       29.81S
$$
MNZ033>034-036-042>043-049>051-058-059-280000-
   Central Minnesota

CITY           SKY/WX    TMP DP  RH WIND       PRES   REMARKS
ST CLOUD       CLOUDY    40  25  55 S10       29.83F
SAUK CENTRE    FAIR      39  27  62 SE12      29.79S
PAYNESVILLE    CLOUDY    41  28  59 SE12      29.81S
AITKIN         CLOUDY    37  23  56 NE3       29.82F
PINE RIVER     CLOUDY    34  27  75 E8        29.85F WCI  27
BRAINERD       CLOUDY    36  25  64 E6        29.81F
STAPLES        CLOUDY    37  23  56 SE6       29.79F
LONG PRAIRIE   FAIR      36  27  69 E8        29.79F
LITTLE FALLS   CLOUDY    39  23  52 SE8       29.81F
LITCHFIELD     PTCLDY    43  30  61 SE9       29.83S
BUFFALO        CLOUDY    41  22  47 SE8       29.86F
MAPLE LAKE     CLOUDY    42  28  57 SE6       29.85F
HUTCHINSON     CLEAR     42  30  61 SE8       29.85S
$$
MNZ037-044-045-052-053-280000-
   East Central Minnesota

CITY           SKY/WX    TMP DP  RH WIND       PRES   REMARKS
PRINCETON      CLOUDY    43  21  42 SE12      29.85S
MORA           CLOUDY    39  19  45 S8        29.87S
CAMBRIDGE      CLOUDY    45  25  45 SE12      29.84S
RUSH CITY      CLOUDY    41  20  43 S10       29.87S
MOOSE LAKE     CLOUDY    39  21  48 CALM      29.83F
HINCKLEY       CLOUDY    43  21  42 S8        29.85F
CLOQUET        CLOUDY    32  21  64 MISG      29.86S
MCGREGOR       CLOUDY    36  27  69 CALM      29.84F
$$
MNZ071>073-080-081-089-090-097-098-280000-
   Southwest Minnesota

CITY           SKY/WX    TMP DP  RH WIND       PRES   REMARKS
MONTEVIDEO     CLOUDY    45  25  45 SW14      29.78F
GRANITE FALLS  SUNNY     46  28  49 SE17      29.80S
CANBY          CLOUDY    47  19  32 S13       29.76S
MARSHALL       SUNNY     46  24  42 S13G22    29.78S
REDWOOD FALLS  SUNNY     46  23  40 S15       29.80F
OLIVIA         SUNNY     45  28  53 S12G20    29.80F
PIPESTONE      SUNNY     43  25  49 S14       29.75S
WINDOM         SUNNY     43  27  52 SE12      29.80F
WORTHINGTON    SUNNY     40  29  64 SE12      29.79F
JACKSON        PTSUNNY   37  28  70 SE8       29.82F
TRACY          SUNNY     46  26  45 S10G22    29.78S
SLAYTON        SUNNY     41  28  59 S10       29.78S
$$
MNZ065>067-074>077-082>085-091>093-280000-
   South Central Minnesota

CITY           SKY/WX    TMP DP  RH WIND       PRES   REMARKS
MANKATO          N/A     37  27  67 SE12      29.87F
NEW ULM        CLOUDY    41  25  52 SE10      29.84F
ST JAMES       SUNNY     36  30  80 SE10      29.85F
FAIRMONT       CLOUDY    35  29  78 SE12      29.84F WCI  27
GLENCOE        MOCLDY    43  29  56 SE8       29.85S
FARIBAULT      CLOUDY    39  27  60 SE8       29.90S
OWATONNA       CLOUDY    39  27  60 SE12      29.89F
WASECA         PTCLDY    36  28  75 SE12      29.89F
ALBERT LEA     MOCLDY    37  30  75 SE10      29.88F
$$
MNZ078>079-086>088-094>096-280000-
   Southeast Minnesota

CITY           SKY/WX    TMP DP  RH WIND       PRES   REMARKS
ROCHESTER      CLEAR     37  30  75 S13       29.92F
RED WING       MOCLDY    43  19  39 S8        29.92F
STANTON        CLOUDY    40  26  57 SE8       29.89F
WINONA         CLEAR     43  27  52 SE6       29.96F
AUSTIN         PTCLDY    36  28  75 E7        29.90F
PRESTON        CLEAR     40  29  66 SE7       29.94S
$$
ABBREVIATIONS USED IN REMARKS
   TC - TEMPERATURES IN CELSIUS
  WCI - WIND CHILL INDEX
   HX - HEAT INDEX
  VSB - VISIBILITY
$$




USA.gov is the U.S. government's official web portal to all federal, state and local government web resources and services.